Weather History for Pompano Beach, FL

Change the Weather History Date:

Wednesday, October 10, 2012

  Actual Average Record
Temperature  
Mean Temperature 78 °F -  
Max Temperature 84 °F 88 °F 93 °F (1975)
Min Temperature 73 °F 71 °F 63 °F (1954)
Cooling Degree Days 14    
Growing Degree Days 28 (Base 50)    
Moisture  
Dew Point 74 °F    
Average Humidity 88    
Maximum Humidity 100    
Minimum Humidity 74    
Precipitation  
Precipitation 0.07 in - - ()
Sea Level Pressure  
Sea Level Pressure 30.03 in    
Wind  
Wind Speed 6 mph (NNE)    
Max Wind Speed 16 mph    
Max Gust Speed 18 mph    
Visibility 10 miles    
Events Rain    
Averages and records for this station are not official NWS values.
T = Trace of Precipitation, MM = Missing Value Source: NWS Daily Summary

Daily Weather History Graph

Daily Weather History Graph

Search for Another Location

Airport:

Trip Planner

Search our weather history database for the weather conditions in past years. The results will help you decide how hot, cold, wet, or windy it might be!

Date:

Astronomy

Oct. 10, 2012 Rise Set
Actual Time 7:17 AM EDT 6:56 PM EDT
Civil Twilight 6:54 AM EDT 7:20 PM EDT
Nautical Twilight 6:27 AM EDT 7:46 PM EDT
Astronomical Twilight 6:00 AM EDT 8:13 PM EDT
Moon 2:20 AM EDT (10/10) 3:33 PM EDT (10/10)
Length of Visible Light 12h 26m
Length of Day
11h 39m
Waning Crescent, 27% of the Moon is Illuminated
Oct 10
Waning Crescent
Oct 15
New
Oct 21
First Quarter
Oct 29
Full
Nov 6
Last Quarter

Hourly Weather History & Observations

Time (EDT) Temp. Heat Index Dew Point Humidity Pressure Visibility Wind Dir Wind Speed Gust Speed Precip Events Conditions
12:26 AM 75.2 °F - 75.2 °F 100% 30.02 in 10.0 mi SE 4.6 mph - 0.00 in   Mostly Cloudy
12:53 AM 75.9 °F - 75.0 °F 97% 30.02 in 10.0 mi Calm Calm - 0.00 in   Scattered Clouds
1:53 AM 75.9 °F - 75.0 °F 97% 30.01 in 10.0 mi Calm Calm - N/A   Clear
2:53 AM 75.0 °F - 75.0 °F 100% 30.00 in 10.0 mi NW 3.5 mph - N/A   Clear
3:53 AM 75.0 °F - 75.0 °F 100% 29.99 in 10.0 mi NNW 4.6 mph - N/A   Clear
4:53 AM 75.0 °F - 75.0 °F 100% 29.99 in 10.0 mi Calm Calm - N/A   Clear
5:53 AM 73.9 °F - 73.9 °F 100% 30.00 in 10.0 mi Calm Calm - N/A   Clear
6:53 AM 73.9 °F - 73.9 °F 100% 30.02 in 10.0 mi Calm Calm - N/A   Clear
7:53 AM 75.0 °F - 75.0 °F 100% 30.04 in 10.0 mi Calm Calm - N/A   Partly Cloudy
8:53 AM 77.0 °F - 75.9 °F 96% 30.05 in 10.0 mi North 6.9 mph - N/A   Overcast
9:53 AM 77.0 °F - 75.9 °F 96% 30.06 in 3.0 mi NNE 6.9 mph - 0.05 in Rain Rain
10:53 AM 80.1 °F 85.4 °F 75.9 °F 87% 30.07 in 10.0 mi North 4.6 mph - 0.00 in   Scattered Clouds
11:53 AM 82.0 °F 89.4 °F 75.9 °F 82% 30.07 in 10.0 mi NE 11.5 mph - 0.02 in   Scattered Clouds
12:53 PM 84.0 °F 91.9 °F 75.0 °F 74% 30.06 in 10.0 mi NE 11.5 mph 17.3 mph N/A   Clear
1:53 PM 81.0 °F 86.2 °F 73.9 °F 79% 30.04 in 10.0 mi NE 15.0 mph - N/A   Mostly Cloudy
2:53 PM 82.0 °F 88.6 °F 75.0 °F 79% 30.03 in 10.0 mi NNE 13.8 mph - N/A   Mostly Cloudy
3:53 PM 82.0 °F 87.9 °F 73.9 °F 76% 30.01 in 10.0 mi NE 15.0 mph - N/A   Mostly Cloudy
4:53 PM 80.1 °F 84.2 °F 73.0 °F 79% 30.01 in 10.0 mi NE 12.7 mph 18.4 mph N/A   Partly Cloudy
5:53 PM 80.1 °F 84.2 °F 73.0 °F 79% 30.01 in 10.0 mi NE 16.1 mph - N/A   Scattered Clouds
6:53 PM 79.0 °F - 73.0 °F 82% 30.02 in 10.0 mi NNE 10.4 mph - N/A   Mostly Cloudy
7:53 PM 78.1 °F - 73.0 °F 84% 30.04 in 10.0 mi NE 11.5 mph - 0.00 in   Scattered Clouds
8:53 PM 78.1 °F - 72.0 °F 81% 30.06 in 10.0 mi NE 10.4 mph - N/A   Partly Cloudy
9:53 PM 78.1 °F - 71.1 °F 79% 30.06 in 10.0 mi NE 11.5 mph - N/A   Mostly Cloudy
10:53 PM 78.1 °F - 70.0 °F 76% 30.07 in 10.0 mi NNE 11.5 mph - N/A   Partly Cloudy
11:53 PM 77.0 °F - 71.1 °F 82% 30.07 in 10.0 mi NE 10.4 mph - N/A   Scattered Clouds